Theta_e
332 332 335 334 337 340 341 340 339 342 343 340 340 340 342 341 343 350 350 351 349 348 348 348 347 346 347 346 347 347 347 347 349 349 349 350 347 347 347 347 345 347 349 347
334 335 333 334 336 338 340 339 336 339 340 341 340 340 339 343 344 350 351 352 351 349 348 348 348 347 346 347 348 348 347 348 350 348 349 347 349 347 347 346 346 345 348 348
335 334 333 334 336 336 339 339 337 338 341 341 341 341 341 341 340 345 349 350 351 350 349 348 348 347 347 348 348 349 349 349 349 349 350 349 348 347 347 346 344 346 348 350
334 334 333 334 335 333 338 339 338 338 340 342 340 342 344 340 342 346 347 349 351 351 350 348 348 348 347 348 348 348 349 349 349 349 351 350 347 347 347 346 345 346 347 346
336 333 333 334 333 332 332 333 337 337 337 338 339 340 340 340 341 346 347 348 349 351 350 350 348 348 348 347 350 348 348 349 350 347 352 350 350 346 345 345 344 345 349 352
335 331 330 329 330 329 329 332 333 333 335 338 336 339 342 341 342 341 344 348 348 350 351 351 350 348 348 348 351 351 349 350 349 348 345 353 349 348 345 345 345 345 350 354
335 335 330 329 328 328 328 328 330 331 334 334 335 336 340 339 341 341 345 343 348 348 350 352 352 350 348 349 350 352 350 351 350 348 341 344 352 350 346 346 346 347 350 351
332 333 333 328 328 329 328 328 329 333 332 331 333 336 337 337 338 338 341 341 343 346 349 351 353 352 349 349 350 352 352 351 351 349 344 339 345 351 344 346 350 348 350 352
332 331 331 330 329 330 328 329 328 328 330 330 331 332 333 337 337 338 337 340 342 344 347 349 353 352 351 349 349 350 352 350 350 346 343 341 340 342 339 345 348 352 350 352
329 331 330 330 330 329 329 329 328 329 332 334 331 336 335 336 339 338 339 339 341 343 345 350 352 353 352 349 349 350 351 350 348 347 340 336 334 337 339 340 350 350 355 350
327 330 331 331 331 330 329 330 329 328 329 331 333 334 337 339 338 339 339 338 339 343 345 348 352 353 353 351 350 350 352 354 353 351 344 341 339 340 339 340 343 350 352 358
329 328 331 331 332 330 330 329 331 333 335 332 334 333 334 336 338 338 338 338 337 340 345 347 350 352 353 353 352 351 352 354 354 351 349 343 340 341 342 342 343 344 349 350
324 330 332 332 334 332 331 330 330 331 330 336 334 332 335 336 338 337 338 336 338 339 343 347 349 351 353 354 354 353 353 354 357 360 359 357 351 350 345 343 343 344 344 346
321 328 332 335 335 335 333 330 331 330 334 332 333 334 333 333 333 339 337 336 338 340 339 346 347 350 351 353 355 355 355 355 356 358 361 360 359 357 354 350 347 344 345 344
325 330 331 332 333 334 331 330 330 332 334 334 333 334 335 336 336 337 336 337 338 340 341 344 346 349 350 351 354 355 355 357 357 356 360 359 359 359 359 359 355 349 345 344
321 327 330 333 333 333 334 331 331 331 330 332 333 333 335 336 334 336 336 335 336 337 338 339 339 341 342 351 351 352 354 356 356 358 358 359 359 360 360 359 358 357 353 349
319 324 328 332 332 334 335 334 332 332 332 331 334 336 336 337 337 337 334 333 333 333 333 334 336 337 340 342 348 353 352 353 354 356 357 359 360 360 360 359 360 360 355 354
316 320 325 329 332 336 334 333 333 333 332 332 333 335 337 338 335 333 333 333 333 333 333 332 333 333 333 335 340 345 351 354 351 353 353 355 358 360 360 360 360 360 360 357
315 317 322 328 331 333 333 332 333 332 333 332 334 334 333 333 334 334 333 333 332 332 332 332 334 333 333 337 341 344 344 348 352 352 353 353 356 358 359 360 359 360 360 360
315 317 319 325 329 332 333 331 331 331 333 334 332 332 333 332 333 342 341 341 341 342 343 342 343 339 338 339 337 340 343 346 346 343 342 348 351 354 358 360 360 360 359 359
315 316 318 321 324 328 329 327 328 332 338 334 335 335 332 336 340 339 339 339 340 341 342 342 343 342 337 335 335 336 341 342 343 342 344 347 346 346 352 359 363 362 361 362
316 316 317 319 322 326 323 324 330 331 326 326 328 329 332 333 334 333 333 335 337 338 340 346 345 343 339 333 337 338 336 337 337 340 342 347 348 349 352 360 363 365 364 363
314 317 318 318 320 325 319 320 319 320 322 323 322 322 325 327 326 325 327 330 331 336 339 346 350 344 340 339 344 343 339 338 339 344 349 347 350 352 356 361 363 366 365 364
314 314 316 316 317 319 317 317 317 317 318 318 318 319 319 322 322 321 323 328 331 334 338 343 351 354 351 350 353 351 346 346 348 345 347 353 355 356 359 359 363 363 363 363
312 313 314 315 316 316 315 315 316 316 316 317 317 317 318 319 320 319 324 328 330 336 337 346 355 359 361 358 360 360 360 356 358 357 358 357 358 360 362 360 364 364 362 365
311 312 314 316 315 315 316 315 316 317 316 316 317 317 318 318 319 321 321 325 330 336 344 349 354 353 358 357 361 363 362 362 362 361 360 360 361 362 362 365 359 363 364 362
Wind_Speed
31 18 25 30 26 24 23 21 24 21 21 19 21 18 16 21 18 30 31 34 34 33 33 34 32 32 31 33 32 33 34 31 29 26 25 22 18 17 16 15 13 14 15 11
22 28 28 27 25 27 28 25 24 23 21 19 22 20 19 21 24 27 36 36 34 32 34 36 36 36 35 38 36 36 37 34 31 30 26 23 20 18 17 17 16 20 19 15
29 20 26 28 27 28 29 27 24 21 12 11 19 17 21 18 31 19 36 36 35 36 37 39 41 40 39 38 41 39 38 38 37 32 27 22 20 20 21 19 18 20 20 13
28 31 30 28 29 28 27 28 27 25 19 17 23 15 17 18 15 21 29 27 36 38 36 38 39 39 40 40 41 41 39 40 39 37 29 30 30 27 25 22 20 20 16 15
30 26 28 29 28 28 26 27 25 26 19 19 18 15 15 20 20 24 23 34 33 40 40 42 42 43 42 41 42 42 40 38 39 38 32 30 29 28 23 22 20 22 22 19
31 33 27 25 23 28 26 23 24 24 18 17 22 20 20 18 23 19 23 34 36 38 41 44 43 40 40 39 40 41 40 38 39 37 39 31 32 29 26 24 24 23 22 21
28 33 28 27 23 26 24 22 14 17 17 16 22 21 15 17 23 22 24 28 35 35 40 41 44 42 43 42 43 43 42 41 40 41 39 40 34 31 29 26 24 25 25 24
24 28 35 21 30 25 28 26 15 24 18 17 22 23 21 22 22 24 35 36 35 36 39 40 45 44 45 44 46 45 46 43 41 41 42 38 42 37 33 31 26 28 25 24
23 29 25 31 24 25 24 26 24 21 20 16 18 28 24 23 24 21 22 32 35 37 37 41 44 45 46 46 47 49 48 46 43 42 44 43 40 44 39 37 33 27 28 23
30 17 30 31 26 29 30 22 22 17 21 21 19 22 19 24 23 24 18 18 33 37 35 42 44 45 48 49 48 48 48 48 44 43 43 45 43 43 43 37 35 34 26 27
30 26 21 29 31 28 21 22 25 20 17 15 15 14 16 26 24 20 23 23 22 33 38 39 43 45 47 46 46 47 47 46 47 44 44 46 45 43 42 43 38 37 34 26
19 23 20 27 29 31 28 27 25 13 22 16 14 11 10 3 24 19 15 32 27 24 34 37 39 42 43 45 45 48 46 46 48 46 43 45 46 45 44 44 44 41 38 36
12 14 19 26 24 30 32 30 27 21 17 20 15 11 8 9 20 23 22 19 33 26 26 36 38 40 43 45 45 45 47 47 43 43 43 44 47 48 48 47 46 45 44 43
6 8 20 19 21 18 29 30 28 28 17 16 18 7 7 6 5 11 18 18 17 25 26 34 34 39 39 43 46 44 43 45 44 43 44 45 46 48 49 48 47 47 48 46
7 13 17 25 23 23 28 26 30 30 21 22 18 19 15 10 7 7 14 15 20 16 11 20 29 38 43 41 45 46 44 43 43 45 46 47 45 46 46 46 48 48 47 48
17 8 13 19 22 19 22 32 30 29 29 22 24 17 20 15 16 12 15 13 14 11 9 6 6 8 13 26 38 44 45 41 43 44 48 46 45 44 46 47 48 46 47 47
13 11 9 16 17 21 20 13 25 26 24 25 20 17 18 19 18 16 16 12 7 0 3 1 5 8 12 15 20 31 40 41 39 42 43 46 46 47 47 47 47 47 50 48
11 13 9 10 13 17 13 10 14 12 24 23 18 15 10 15 20 17 12 10 11 7 5 6 10 14 15 17 21 25 24 32 41 38 42 41 43 46 48 48 48 49 49 51
11 10 7 5 8 8 12 14 18 13 10 11 21 17 7 15 13 11 9 6 3 6 9 10 14 17 15 19 23 30 31 33 35 38 41 43 41 45 46 50 50 48 48 50
11 10 7 9 7 11 5 17 8 10 12 13 9 2 4 7 5 9 17 14 10 8 10 7 10 8 6 6 17 22 28 32 31 31 35 42 42 47 48 49 50 49 48 49
11 8 10 10 6 3 9 19 11 9 6 18 25 9 5 3 12 13 12 12 11 11 12 13 13 14 13 11 13 16 12 26 28 29 31 33 35 40 46 47 45 47 47 46
7 12 11 11 14 12 20 13 9 8 16 20 22 25 24 18 15 15 15 14 15 16 17 14 15 17 20 16 15 21 25 22 27 27 32 34 33 34 39 43 43 42 43 43
6 6 7 7 11 14 21 16 16 15 11 14 15 16 17 16 17 17 20 20 19 20 21 18 20 18 18 17 20 25 23 27 28 26 26 33 33 32 32 34 40 38 38 39
18 23 11 13 16 19 18 17 14 16 15 13 13 15 14 16 18 22 22 23 25 25 26 23 23 16 10 12 12 19 22 27 24 26 28 29 31 31 31 33 32 36 35 36
15 21 18 20 18 21 25 25 24 22 22 20 18 18 17 18 19 20 23 22 25 25 28 23 24 9 11 9 9 9 10 12 19 21 24 26 26 25 28 29 24 27 29 28
17 17 13 15 31 29 31 34 27 24 26 24 21 23 21 18 18 19 21 23 23 23 25 28 16 11 11 8 8 11 10 10 14 16 17 19 19 22 23 22 30 21 24 23
Wind_Direction
206 210 214 216 220 225 242 224 221 234 224 207 221 219 171 181 187 187 169 174 180 189 190 186 192 191 190 189 193 198 197 197 206 208 205 197 209 212 219 211 219 246 255 248
200 222 215 218 217 225 233 243 234 231 206 211 216 208 215 194 194 173 176 183 178 187 187 188 191 191 194 192 196 202 201 200 205 211 211 202 203 211 224 220 219 228 247 230
211 215 219 217 215 222 223 232 244 234 167 266 225 228 222 192 220 194 177 185 178 188 188 188 188 194 193 194 198 204 205 201 207 210 202 202 205 210 221 223 223 233 238 236
216 222 202 217 220 216 222 224 240 251 242 208 204 211 215 219 174 182 192 187 180 184 189 188 190 195 193 196 201 207 210 206 209 206 203 202 202 208 207 224 223 233 242 235
213 215 222 209 219 217 225 220 227 247 257 252 220 222 215 210 216 182 191 181 195 182 186 185 191 196 198 195 196 205 213 214 210 212 198 210 209 207 216 216 223 223 237 238
225 214 226 214 211 224 222 229 222 230 246 247 245 234 213 215 206 208 190 188 193 184 186 186 189 195 198 197 195 199 211 217 215 215 207 205 216 209 210 218 217 221 222 229
217 228 216 224 212 210 214 216 217 220 215 231 235 246 250 237 195 206 185 198 192 188 184 183 183 189 194 197 195 196 211 217 219 218 217 210 211 220 207 216 215 218 219 232
215 211 220 207 213 203 210 212 218 214 218 220 230 230 232 250 260 223 186 189 194 186 183 182 183 187 192 198 197 198 207 216 219 218 221 216 215 218 214 207 220 214 217 224
211 228 203 227 213 213 199 215 217 226 225 231 222 221 247 226 241 249 230 191 187 184 188 182 182 187 192 196 200 199 206 217 221 221 220 222 217 220 222 210 209 220 215 217
240 230 222 205 214 216 228 198 215 228 237 234 227 225 215 219 218 223 231 210 187 183 184 180 182 188 193 198 201 201 205 216 221 221 219 221 222 221 222 221 213 212 219 216
237 248 237 220 206 208 209 219 208 227 233 240 251 242 223 200 203 211 203 212 210 188 178 180 182 189 195 194 197 203 206 211 218 222 223 221 223 223 223 222 222 219 214 215
238 229 244 247 213 208 211 215 211 217 218 241 264 275 17 283 184 195 213 190 212 208 181 179 182 190 191 194 197 203 206 208 218 223 223 225 225 226 226 226 226 228 226 221
352 237 229 242 249 191 212 209 221 218 224 221 240 245 58 11 161 182 192 217 191 211 189 178 180 189 193 195 197 202 206 210 211 216 220 222 225 227 230 231 230 231 233 233
293 261 250 225 231 207 193 214 210 226 210 225 223 166 126 87 125 161 171 195 197 197 210 178 185 190 194 196 196 200 207 208 210 215 219 223 223 226 231 234 237 236 235 238
269 260 253 255 237 232 193 209 214 211 225 213 224 220 136 138 128 136 159 187 193 155 142 172 194 194 193 194 198 201 204 208 209 213 218 229 232 227 227 231 234 240 239 239
337 281 273 264 259 270 266 199 212 215 220 223 233 226 135 130 123 143 108 83 77 97 142 160 186 176 183 193 195 204 204 207 211 214 219 222 230 231 229 231 232 233 239 240
325 342 308 252 251 253 249 241 204 217 210 220 221 234 146 148 151 145 140 159 149 178 316 285 176 188 201 213 199 203 210 206 211 217 220 219 223 226 231 235 233 231 236 238
297 303 301 276 277 242 243 247 249 254 219 213 220 233 187 155 156 148 142 138 158 188 212 240 241 236 235 234 224 217 209 212 214 217 221 222 222 227 230 233 236 235 233 236
272 283 297 272 244 231 242 230 217 236 235 213 215 223 188 88 111 93 103 137 193 243 288 277 281 256 244 218 219 213 206 214 217 220 223 226 224 226 229 232 236 236 234 234
229 246 278 293 269 224 276 232 239 229 228 328 287 301 156 122 168 68 49 48 37 18 348 325 331 294 283 215 220 220 206 211 221 226 229 230 230 229 229 231 233 235 238 238
203 243 237 241 263 290 357 347 358 200 37 11 18 357 239 64 67 63 44 31 14 2 338 326 313 299 276 256 241 236 226 213 227 242 246 240 238 235 233 231 231 233 234 232
203 190 224 244 244 236 51 358 38 43 46 32 27 26 25 28 37 29 16 5 355 348 340 331 306 291 278 269 271 267 247 237 237 241 242 245 244 242 233 229 227 229 231 234
215 218 282 259 249 308 349 353 4 2 22 22 15 13 5 2 355 348 345 347 345 340 326 323 308 280 259 269 250 265 256 247 245 232 235 238 243 241 232 225 225 223 228 231
330 321 325 282 271 288 306 310 319 324 329 332 327 329 330 326 327 329 335 337 335 329 315 314 317 300 284 259 243 250 252 242 242 238 232 232 234 234 232 222 229 224 225 231
312 315 308 302 289 295 287 287 294 299 299 297 299 302 303 309 312 316 321 322 316 312 311 319 319 289 311 252 267 263 261 238 231 228 223 223 227 227 224 225 219 229 231 228
304 309 300 291 302 304 296 301 306 300 275 275 278 277 283 291 299 305 298 304 310 313 309 314 309 301 288 284 266 241 221 217 213 210 215 213 212 218 220 221 214 220 222 228